Glenwood, MN

8:05 AM CDT on August 28, 2016 (GMT -0500)
Glenwood Municipal

Weather History for KGHW - January, 2013

Change the Weather History Date:

Tuesday, January 29, 2013

  Actual Average Record
Temperature  
Mean Temperature 24 °F -  
Max Temperature 30 °F 22 °F 42 °F (1990)
Min Temperature 19 °F 1 °F -37 °F (1951)
Degree Days  
Heating Degree Days 40    
Moisture  
Dew Point 24 °F    
Average Humidity 95    
Maximum Humidity 100    
Minimum Humidity 86    
Precipitation  
Precipitation 0.02 in - - ()
Sea Level Pressure  
Sea Level Pressure 29.68 in    
Wind  
Wind Speed 9 mph (NW)    
Max Wind Speed 20 mph    
Max Gust Speed 24 mph    
Visibility 6 miles    
Events Snow    
Averages and records for this station are not official NWS values.
T = Trace of Precipitation, MM = Missing Value Source: NWS Daily Summary

Daily Weather History Graph

Daily Weather History Graph

Search for Another Location

Airport or City:

Trip Planner

Search our weather history database for the weather conditions in past years. The results will help you decide how hot, cold, wet, or windy it might be!

Date:

Astronomy

Jan. 29, 2013 Rise Set
Actual Time 7:45 AM CST 5:23 PM CST
Civil Twilight 7:13 AM CST 5:55 PM CST
Nautical Twilight 6:38 AM CST 6:31 PM CST
Astronomical Twilight 6:03 AM CST 7:06 PM CST
Moon 8:33 PM CST (1/29) 8:32 AM CST (1/29)
Length of Visible Light 10h 41m
Length of Day
9h 37m
Waning Gibbous, 93% of the Moon is Illuminated
Jan 29
Waning Gibbous
Feb 3
Last Quarter
Feb 10
New
Feb 17
First Quarter
Feb 25
Full

Hourly Weather History & Observations

Time (CST) Temp. Windchill Dew Point Humidity Pressure Visibility Wind Dir Wind Speed Gust Speed Precip Events Conditions
12:13 AM 30.2 °F - 30.2 °F 100% 29.62 in 3.0 mi Calm Calm - N/A   Overcast
12:34 AM 30.2 °F - 30.2 °F 100% 29.61 in 3.0 mi Calm Calm - 0.01 in   Overcast
12:53 AM 30.2 °F - 30.2 °F 100% 29.59 in 3.0 mi Calm Calm - 0.01 in   Overcast
1:13 AM 30.2 °F - 30.2 °F 100% 29.58 in 4.0 mi Calm Calm - N/A   Overcast
1:34 AM 30.2 °F - 30.2 °F 100% 29.59 in 4.0 mi Calm Calm - N/A   Overcast
1:53 AM 30.2 °F 25.4 °F 30.2 °F 100% 29.59 in 3.0 mi WNW 4.6 mph - N/A   Overcast
2:13 AM 30.2 °F 24.3 °F 30.2 °F 100% 29.61 in 2.5 mi West 5.8 mph - N/A   Overcast
2:34 AM 30.2 °F 23.4 °F 30.2 °F 100% 29.60 in 2.5 mi WNW 6.9 mph - N/A   Overcast
2:53 AM 30.2 °F 24.3 °F 30.2 °F 100% 29.58 in 3.0 mi NW 5.8 mph - 0.01 in Snow Light Snow
3:13 AM 30.2 °F 22.6 °F 30.2 °F 100% 29.57 in 3.0 mi NNW 8.1 mph - N/A Snow Light Snow
3:34 AM 30.2 °F 25.4 °F 30.2 °F 100% 29.58 in 7.0 mi NNW 4.6 mph - N/A   Overcast
3:53 AM 30.2 °F 24.3 °F 30.2 °F 100% 29.58 in 7.0 mi NW 5.8 mph - N/A   Overcast
4:13 AM 30.2 °F 22.6 °F 30.2 °F 100% 29.57 in 10.0 mi NW 8.1 mph - N/A   Overcast
4:33 AM 30.2 °F 21.9 °F 30.2 °F 100% 29.58 in 7.0 mi NW 9.2 mph - N/A Snow Light Snow
4:53 AM 30.2 °F 21.9 °F 30.2 °F 100% 29.59 in 7.0 mi NW 9.2 mph - N/A Snow Light Snow
5:14 AM 30.2 °F 22.6 °F 30.2 °F 100% 29.57 in 7.0 mi NNW 8.1 mph - N/A   Overcast
5:33 AM 28.4 °F 18.5 °F 28.4 °F 100% 29.56 in 7.0 mi NNW 11.5 mph - N/A   Overcast
5:53 AM 28.4 °F 19.1 °F 28.4 °F 100% 29.56 in 7.0 mi NNW 10.4 mph - N/A   Overcast
6:14 AM 28.4 °F 19.7 °F 28.4 °F 100% 29.57 in 7.0 mi NNW 9.2 mph - N/A   Mostly Cloudy
6:33 AM 26.6 °F 17.5 °F 26.6 °F 100% 29.57 in 7.0 mi NNW 9.2 mph - N/A   Scattered Clouds
6:53 AM 28.4 °F 18.0 °F 26.6 °F 93% 29.60 in 7.0 mi WNW 12.7 mph - N/A   Mostly Cloudy
7:14 AM 26.6 °F 14.3 °F 26.6 °F 100% 29.61 in 7.0 mi WNW 16.1 mph - N/A   Overcast
7:33 AM 26.6 °F 14.7 °F 26.6 °F 100% 29.63 in 5.0 mi WNW 15.0 mph - N/A   Overcast
7:53 AM 26.6 °F 16.2 °F 26.6 °F 100% 29.63 in 5.0 mi NW 11.5 mph - N/A   Overcast
8:14 AM 26.6 °F 15.7 °F 26.6 °F 100% 29.63 in 4.0 mi NW 12.7 mph - N/A   Overcast
8:33 AM 26.6 °F 14.7 °F 26.6 °F 100% 29.63 in 3.0 mi NW 15.0 mph - N/A   Overcast
8:53 AM 26.6 °F 16.2 °F 26.6 °F 100% 29.64 in 3.0 mi NW 11.5 mph - N/A   Overcast
9:14 AM 26.6 °F 14.7 °F 26.6 °F 100% 29.64 in 3.0 mi WNW 15.0 mph - N/A   Overcast
9:33 AM 26.6 °F 16.2 °F 26.6 °F 100% 29.63 in 3.0 mi NW 11.5 mph - N/A   Mostly Cloudy
9:53 AM 26.6 °F 16.2 °F 26.6 °F 100% 29.64 in 3.0 mi NW 11.5 mph - N/A   Scattered Clouds
10:13 AM 26.6 °F 15.2 °F 26.6 °F 100% 29.67 in 3.0 mi WNW 13.8 mph 17.3 mph N/A   Overcast
10:33 AM 26.6 °F 15.2 °F 24.8 °F 93% 29.66 in 3.0 mi WNW 13.8 mph - N/A   Mostly Cloudy
10:53 AM 26.6 °F 14.7 °F 24.8 °F 93% 29.66 in 3.0 mi WNW 15.0 mph - N/A   Clear
11:13 AM 26.6 °F 16.2 °F 24.8 °F 93% 29.68 in 3.0 mi WNW 11.5 mph 17.3 mph N/A   Scattered Clouds
11:33 AM 26.6 °F 16.2 °F 24.8 °F 93% 29.68 in 3.0 mi WNW 11.5 mph - N/A   Clear
11:53 AM 26.6 °F 16.2 °F 24.8 °F 93% 29.68 in 3.0 mi WNW 11.5 mph - N/A   Mostly Cloudy
12:13 PM 26.6 °F 16.2 °F 24.8 °F 93% 29.69 in 2.5 mi WNW 11.5 mph 16.1 mph N/A   Overcast
12:33 PM 26.6 °F 16.2 °F 24.8 °F 93% 29.69 in 3.0 mi NW 11.5 mph - N/A   Overcast
12:53 PM 26.6 °F 16.8 °F 24.8 °F 93% 29.68 in 5.0 mi NW 10.4 mph - N/A   Mostly Cloudy
1:14 PM 26.6 °F 16.2 °F 24.8 °F 93% 29.68 in 7.0 mi NNW 11.5 mph - N/A   Mostly Cloudy
1:33 PM 26.6 °F 15.2 °F 24.8 °F 93% 29.67 in 7.0 mi NW 13.8 mph - N/A   Overcast
1:53 PM 26.6 °F 15.2 °F 23.0 °F 86% 29.67 in 5.0 mi NW 13.8 mph 18.4 mph N/A   Overcast
2:13 PM 26.6 °F 15.2 °F 24.8 °F 93% 29.68 in 5.0 mi NNW 13.8 mph 17.3 mph N/A   Overcast
2:33 PM 26.6 °F 14.7 °F 23.0 °F 86% 29.68 in 7.0 mi NNW 15.0 mph - N/A   Overcast
2:54 PM 24.8 °F 13.4 °F 23.0 °F 93% 29.69 in 7.0 mi NW 12.7 mph - N/A   Overcast
3:13 PM 24.8 °F 14.0 °F 23.0 °F 93% 29.71 in 7.0 mi NW 11.5 mph - N/A   Overcast
3:33 PM 24.8 °F 12.4 °F 21.2 °F 86% 29.72 in 7.0 mi NW 15.0 mph - N/A   Overcast
3:54 PM 24.8 °F 12.4 °F 21.2 °F 86% 29.72 in 7.0 mi NW 15.0 mph - N/A   Overcast
4:13 PM 24.8 °F 12.9 °F 21.2 °F 86% 29.73 in 7.0 mi NW 13.8 mph - N/A   Overcast
4:33 PM 24.8 °F 12.9 °F 21.2 °F 86% 29.73 in 10.0 mi NW 13.8 mph - N/A   Overcast
4:54 PM 23.0 °F 10.1 °F 21.2 °F 93% 29.73 in 10.0 mi NNW 15.0 mph 19.6 mph N/A   Overcast
5:13 PM 23.0 °F 9.2 °F 21.2 °F 93% 29.72 in 7.0 mi NNW 17.3 mph - N/A   Overcast
5:33 PM 21.2 °F 7.3 °F 19.4 °F 93% 29.73 in 7.0 mi NNW 16.1 mph 23.0 mph N/A   Overcast
5:54 PM 21.2 °F 7.3 °F 19.4 °F 93% 29.75 in 7.0 mi NNW 16.1 mph - N/A   Overcast
6:13 PM 21.2 °F 6.0 °F 19.4 °F 93% 29.74 in 7.0 mi North 19.6 mph 24.2 mph N/A   Overcast
6:33 PM 21.2 °F 7.3 °F 19.4 °F 93% 29.76 in 10.0 mi NNW 16.1 mph 23.0 mph N/A   Overcast
6:54 PM 21.2 °F 6.8 °F 19.4 °F 93% 29.75 in 10.0 mi NNW 17.3 mph - N/A   Overcast
7:13 PM 21.2 °F 8.3 °F 19.4 °F 93% 29.76 in 10.0 mi NNW 13.8 mph - N/A   Overcast
7:33 PM 21.2 °F 6.4 °F 19.4 °F 93% 29.77 in 10.0 mi NNW 18.4 mph - N/A   Overcast
7:53 PM 21.2 °F 7.3 °F 19.4 °F 93% 29.78 in 10.0 mi North 16.1 mph 21.9 mph N/A   Overcast
8:13 PM 21.2 °F 6.8 °F 19.4 °F 93% 29.78 in 10.0 mi North 17.3 mph - N/A   Overcast
8:34 PM 21.2 °F 6.4 °F 19.4 °F 93% 29.77 in 10.0 mi NNW 18.4 mph 24.2 mph N/A   Overcast
8:53 PM 21.2 °F 6.8 °F 19.4 °F 93% 29.79 in 10.0 mi NNW 17.3 mph 21.9 mph N/A   Overcast
9:13 PM 21.2 °F 6.8 °F 19.4 °F 93% 29.79 in 10.0 mi North 17.3 mph 20.7 mph N/A   Overcast
9:34 PM 21.2 °F 6.4 °F 19.4 °F 93% 29.78 in 10.0 mi NNW 18.4 mph - N/A   Overcast
9:53 PM 21.2 °F 6.8 °F 19.4 °F 93% 29.79 in 10.0 mi NNW 17.3 mph - N/A   Overcast
10:13 PM 21.2 °F 7.8 °F 17.6 °F 86% 29.80 in 10.0 mi NNW 15.0 mph - N/A   Overcast
10:34 PM 21.2 °F 6.8 °F 17.6 °F 86% 29.80 in 10.0 mi NNW 17.3 mph 23.0 mph N/A   Overcast
10:53 PM 21.2 °F 6.8 °F 17.6 °F 86% 29.81 in 10.0 mi North 17.3 mph 24.2 mph N/A   Overcast
11:13 PM 21.2 °F 7.8 °F 17.6 °F 86% 29.80 in 10.0 mi NNW 15.0 mph 19.6 mph N/A Snow Light Snow
11:34 PM 19.4 °F 4.5 °F 17.6 °F 93% 29.79 in 10.0 mi NW 17.3 mph - N/A   Overcast
11:53 PM 19.4 °F 6.0 °F 15.8 °F 86% 29.79 in 10.0 mi NNW 13.8 mph 20.7 mph N/A   Overcast